Location: Kitchener
(43.4500°N, 80.5000°W)
Time: 12:49:09
(UTC-05:00)

Daily predictions for brighter satellites

Satellite Brightness Start Highest point End
(mag) Time Altitude Azimuth Time Altitude Azimuth Time Altitude Azimuth
Cosmos 1634 Rocket 4.3 17:08:05 10° SSW 17:14:17 76° W 17:20:36 10° N
Cosmos 1943 Rocket 4.3 17:11:00 10° W 17:14:57 19° NW 17:18:58 10° N
Cosmos 389 Rocket 2.4 17:12:12 10° N 17:15:41 69° E 17:19:06 10° SSE
SJ-12 3.9 17:12:20 10° SSE 17:16:26 75° ENE 17:20:32 10° N
Cosmos 1271 Rocket 2.8 17:13:29 10° N 17:17:14 53° ENE 17:21:00 10° SSE
ALOS 3.9 17:15:41 10° E 17:18:01 14° ENE 17:20:22 10° NNE
Cosmos 1980 Rocket 4.0 17:17:50 10° ESE 17:19:58 12° E 17:22:08 10° ENE
NOSS 3-2 (A) 4.2 17:13:52 10° NNW 17:21:04 51° NE 17:28:56 10° ESE
SJ-7 4.5 17:21:49 10° SSE 17:25:43 53° ENE 17:29:37 10° N
IDEFIX/ARIANE 42P 3.9 17:22:17 10° S 17:27:12 44° W 17:32:09 10° NNW
Cosmos 2297 Rocket 2.3 17:22:34 10° NNW 17:28:08 56° ENE 17:33:41 10° SE
NOSS 3-2 (C) 4.3 17:22:14 10° NNW 17:29:19 46° NE 17:37:02 10° ESE
Cosmos 1656 4.2 17:24:30 10° S 17:29:38 39° ESE 17:34:43 10° NE
Cosmos 1666 2.5 17:29:03 10° N 17:32:49 75° E 17:36:32 10° SSE
Cosmos 2266 Rocket 4.2 17:27:43 10° N 17:33:33 45° ENE 17:39:26 10° SSE
ATLAS 3B R/B 2.6 17:26:54 10° NW 17:33:39 85° NE 17:40:11 10° SE
USA 161 2.9 17:33:12 10° N 17:36:00 40° WNW 17:38:51 10° SW
ATLAS 2AS CENTAUR R/B 3.3 17:28:47 10° SW 17:36:36 76° NW 17:44:47 10° NE
Cosmos 1655 Rocket 4.2 17:32:27 10° N 17:38:52 82° W 17:45:15 10° S
Cosmos 1484 Rocket 2.8 17:35:02 10° SSE 17:39:01 73° ENE 17:43:02 10° N
Cosmos 1455 Rocket 3.0 17:34:38 10° N 17:39:04 79° E 17:43:27 10° S
Atlas Centaur 2 4.4 17:36:05 10° WSW 17:39:51 17° SSW 17:43:10 10° SSE
Cosmos 158 Rocket 3.8 17:38:08 10° NNW 17:43:14 78° ENE 17:48:10 10° SSE
Cosmos 1544 Rocket 3.6 17:39:07 10° N 17:43:30 86° W 17:47:49 10° S
DELTA 2 R/B (1) 4.0 17:39:44 10° W 17:45:11 59° S 17:50:40 10° ESE
USA 116 3.9 17:43:51 10° NNE 17:46:45 33° E 17:49:34 10° SSE
NOSS 8 (A) 4.2 17:44:39 10° SSW 17:47:55 71° ESE 17:50:34 15° NE
USA 215 3.3 17:42:05 10° SE 17:48:38 89° SW 17:55:13 10° NW
PSLV R/B 3.6 17:47:24 10° WSW 17:50:31 52° S 17:52:53 15° E
YAOGAN 1 2.8 17:46:51 10° SE 17:50:57 45° ENE 17:55:07 10° N
IRS-1A Rocket 4.3 17:46:17 10° SSE 17:51:44 59° ENE 17:57:09 10° N
Abrixas rocket 3.2 17:49:33 10° WNW 17:52:33 33° N 17:54:22 18° NE
BREEZE-M DEB (TANK) 3.5 17:51:09 10° NW 17:53:46 50° NNE 17:59:31 10° ESE
CSL-04 Debris 4.3 17:48:36 10° SSE 17:53:59 83° WSW 17:59:25 10° NNW
Meteor 2-4 Rocket 3.5 17:51:41 10° S 17:57:05 73° E 18:02:26 10° NNE
NOSS 3-4 (A) 3.9 17:52:22 10° S 17:58:11 44° ESE 18:02:56 16° NE
NOSS 3-4 (C) 3.9 17:52:28 10° S 17:58:17 43° ESE 18:03:00 16° NE
Cosmos 2263 Rocket 3.9 17:59:57 10° NNE 18:01:51 12° NE 18:01:51 12° NE
ISS -1.0 17:59:47 10° W 18:02:17 20° SW 18:04:48 10° S
Cosmos 724 4.3 17:56:50 10° NW 18:02:39 86° WSW 18:08:28 10° SSE
METEOR-M 4.1 17:58:16 10° SSE 18:03:29 60° ENE 18:08:45 10° N
FENGYUN 3A 4.1 17:59:43 10° SE 18:04:39 39° ENE 18:09:36 10° N
Cosmos 2369 3.7 18:00:28 10° SSW 18:06:08 89° ESE 18:11:54 10° NNE
Cosmos 2278 3.7 18:00:39 10° SSW 18:06:19 85° ESE 18:12:04 10° NNE
COSMO-SKYMED 1 3.0 18:02:48 12° NNE 18:06:38 42° E 18:10:45 10° S
RESURS DK-1 4.0 18:05:25 10° SE 18:07:48 17° ESE 18:07:48 17° ESE
SJ 16-02 1.3 18:04:41 10° SSW 18:09:04 86° WNW 18:13:30 10° NNE
CSL-04 Rocket 4.5 18:04:03 10° S 18:09:22 56° W 18:14:49 10° NNW
Meteor 1-28 Rocket 3.3 18:05:45 10° N 18:09:31 75° WNW 18:13:16 10° SSW
CENTAUR R/B 3.5 18:05:29 10° NNW 18:12:45 41° NE 18:19:24 14° ESE
Cosmos 1697 Rocket 2.6 18:16:00 10° SSW 18:21:36 70° ESE 18:25:53 18° NNE
Cosmos 1515 3.6 18:19:21 10° S 18:23:05 62° E 18:25:17 23° NNE
CZ-2C R/B 3.9 18:18:47 10° N 18:23:30 79° WNW 18:28:14 10° SSW
EO 1 Del DPAF 3.4 18:22:11 30° NE 18:23:41 48° E 18:27:23 10° S
CZ-4 R/B 2.4 18:23:07 10° S 18:26:52 47° W 18:30:43 10° NNW
Meteor 1-15 Rocket 4.3 18:22:53 10° N 18:28:52 86° E 18:34:46 10° S
SPOT 3 Rocket 3.5 18:24:32 10° SSE 18:29:39 64° ENE 18:34:45 10° N
Cosmos 1025 Rocket 2.9 18:27:21 10° S 18:31:36 66° E 18:34:10 23° NNE
SKYMED 3 4.5 18:33:12 15° NNE 18:36:46 89° ESE 18:41:06 10° SSW
MONITOR-E 4.1 18:33:51 10° S 18:36:53 82° WSW 18:39:57 10° NNW
ERS-2 2.0 18:34:00 10° SSE 18:37:39 87° ENE 18:41:21 10° NNW
Okean 1-7 Rocket 3.5 18:33:32 10° S 18:37:50 58° E 18:39:24 36° NNE
Cosmos 494 Rocket 3.9 18:32:38 10° NNW 18:37:54 65° ENE 18:43:05 10° SSE
Landsat 4 3.9 18:35:27 18° N 18:38:13 71° WNW 18:42:00 10° SSW
Gblst 52 Del rocket 4.2 18:34:38 10° WNW 18:40:17 89° NNE 18:44:12 24° ESE
Cosmos 2251 Rocket 3.7 18:35:22 10° N 18:40:28 46° ENE 18:42:22 32° ESE
Cosmos 2084 3.2 18:36:51 10° SSW 18:41:00 76° SE 18:41:45 56° ENE
Cosmos 1745 Rocket 4.4 18:37:09 10° N 18:42:54 38° ENE 18:48:40 10° SE
Cosmos 2227 Rocket 4.1 18:40:39 10° NW 18:45:31 30° WSW 18:50:21 10° SSW
Okean 2 3.4 18:44:42 10° SSW 18:48:48 78° W 18:50:50 29° N
Gbstr 26 Del rocket 4.4 18:43:15 10° WSW 18:51:18 79° NNW 18:54:40 36° NE
SKYMED 2 4.1 18:51:24 16° N 18:54:44 58° WNW 18:58:59 10° SSW
DNEPR-1 R/B 4.0 18:49:41 10° NNW 18:54:49 83° NE 18:59:46 17° SE
ALOS 2.4 18:50:13 10° S 18:54:51 73° WSW 18:59:32 10° NNW
FengYun 1-2 T 4.2 18:49:32 10° SSE 18:55:01 57° ENE 19:00:33 10° N
Cosmos 1980 Rocket 2.1 18:57:23 10° SSW 19:03:04 88° ESE 19:05:03 43° NNE
Cosmos 1066 Rocket 4.0 19:01:01 10° S 19:06:30 73° E 19:07:39 55° NNE
DELTA 2 R/B (1) 4.5 19:26:05 10° W 19:31:14 39° SSW 19:31:48 38° S
Cosmos 2344 3.9 19:25:17 10° S 19:31:20 44° SE 19:31:20 44° SE
Cosmos 2227 4.3 19:27:09 10° NNW 19:32:53 72° WSW 19:34:03 55° S
Lacrosse 5 rocket 4.0 19:29:05 10° SSW 19:29:24 12° SSW 19:29:24 12° SSW
S3M 4.0 19:37:02 10° SSW 19:43:07 72° W 19:44:08 60° NNW
RESURS DK-1 4.4 19:41:47 10° SW 19:43:45 25° WSW 19:43:45 25° WSW
SL-16 R/B 3.7 19:40:09 10° SSW 19:42:32 26° S 19:42:32 26° S
Cosmos 2263 Rocket 3.9 19:41:48 10° NNW 19:43:35 21° NNW 19:43:35 21° NNW
SJ 16-02 4.4 19:47:47 10° WNW 19:48:24 10° NW 19:49:01 10° NW
NOSS 3-4 (A) 4.5 19:43:16 10° WSW 19:49:07 41° NW 19:50:25 37° NNW
NOSS 3-4 (C) 4.4 19:43:20 10° WSW 19:49:12 41° NW 19:50:29 37° NNW
Cosmos 2322 Rocket 3.8 19:44:31 10° SSW 19:46:37 24° S 19:46:37 24° S
CENTAUR R/B 3.4 19:56:06 10° NW 20:03:56 63° WSW 20:06:43 43° S
